Location: Conflandey
(47.7287°N, 6.0456°E)
Time: 03:42:14
(UTC+00:00)

Okean-O - Pass Details

Date: 24 October 2021
Orbit: 638 x 640 km, 98.2° (Epoch: 28 November)

Event Time Altitude Azimuth Distance (km) Brightness Sun altitude
Exits shadow 18:02:48 27° 107° (ESE) 1,231 3.5 -16.0°
Maximum altitude 18:04:19 35° 67° (ENE) 1,035 3.2 -16.3°
Drops below altitude 10° 18:08:22 10° 2° (N) 2,044 5.2 -17.0°
Sets 18:10:43 0° 354° (N) 2,957 6.1 -17.4°
